Year,Month,Day,Hour,Minute,Value (Times are PST for temperature in C)
2015,06,27,00,00,21.10
2015,06,27,00,01,21.10
2015,06,27,00,02,21.10
2015,06,27,00,03,21.10
2015,06,27,00,04,21.10
2015,06,27,00,05,21.00
2015,06,27,00,06,21.00
2015,06,27,00,07,20.90
2015,06,27,00,08,20.90
2015,06,27,00,09,20.90
2015,06,27,00,10,20.90
2015,06,27,00,11,20.90
2015,06,27,00,12,20.90
2015,06,27,00,13,20.80
2015,06,27,00,14,20.80
2015,06,27,00,15,20.80
2015,06,27,00,16,20.80
2015,06,27,00,17,20.80
2015,06,27,00,18,20.70
2015,06,27,00,19,20.70
2015,06,27,00,21,20.70
2015,06,27,00,22,20.70
2015,06,27,00,23,20.60
2015,06,27,00,24,20.60
2015,06,27,00,25,20.60
2015,06,27,00,26,20.60
2015,06,27,00,27,20.50
2015,06,27,00,28,20.50
2015,06,27,00,29,20.40
2015,06,27,00,30,20.40
2015,06,27,00,31,20.40
2015,06,27,00,33,20.40
2015,06,27,00,34,20.30
2015,06,27,00,35,20.30
2015,06,27,00,36,20.30
2015,06,27,00,38,20.30
2015,06,27,00,39,20.30
2015,06,27,00,40,20.20
2015,06,27,00,41,20.20
2015,06,27,00,42,20.20
2015,06,27,00,43,20.20
2015,06,27,00,44,20.20
2015,06,27,00,45,20.10
2015,06,27,00,46,20.10
2015,06,27,00,47,20.10
2015,06,27,00,48,20.10
2015,06,27,00,51,20.00
2015,06,27,00,52,20.00
2015,06,27,00,53,19.90
2015,06,27,00,54,19.90
2015,06,27,00,55,19.90
2015,06,27,00,56,19.90
2015,06,27,00,57,19.90
2015,06,27,00,58,19.90
2015,06,27,00,59,19.80
2015,06,27,01,00,19.80
2015,06,27,01,01,19.80
2015,06,27,01,03,19.80
2015,06,27,01,04,19.70
2015,06,27,01,05,19.70
2015,06,27,01,06,19.70
2015,06,27,01,07,19.70
2015,06,27,01,08,19.70
2015,06,27,01,09,19.70
2015,06,27,01,10,19.60
2015,06,27,01,11,19.60
2015,06,27,01,12,19.60
2015,06,27,01,13,19.60
2015,06,27,01,14,19.60
2015,06,27,01,15,19.50
2015,06,27,01,16,19.50
2015,06,27,01,17,19.50
2015,06,27,01,18,19.40
2015,06,27,01,19,19.40
2015,06,27,01,20,19.40
2015,06,27,01,21,19.40
2015,06,27,01,22,19.40
2015,06,27,01,23,19.30
2015,06,27,01,25,19.30
2015,06,27,01,26,19.30
2015,06,27,01,27,19.30
2015,06,27,01,28,19.30
2015,06,27,01,30,19.30
2015,06,27,01,31,19.20
2015,06,27,01,32,19.20
2015,06,27,01,33,19.20
2015,06,27,01,34,19.20
2015,06,27,01,35,19.20
2015,06,27,01,36,19.20
2015,06,27,01,37,19.20
2015,06,27,01,38,19.20
2015,06,27,01,39,19.20
2015,06,27,01,40,19.20
2015,06,27,01,41,19.20
2015,06,27,01,42,19.20
2015,06,27,01,43,19.20
2015,06,27,01,44,19.10
2015,06,27,01,45,19.10
2015,06,27,01,46,19.10
2015,06,27,01,47,19.10
2015,06,27,01,48,19.10
2015,06,27,01,49,19.10
2015,06,27,01,50,19.10
2015,06,27,01,51,19.10
2015,06,27,01,52,19.00
2015,06,27,01,53,19.00
2015,06,27,01,54,19.00
2015,06,27,01,55,18.90
2015,06,27,01,56,18.90
2015,06,27,01,57,18.90
2015,06,27,01,58,18.90
2015,06,27,01,59,18.90
2015,06,27,02,00,18.80
2015,06,27,02,01,18.80
2015,06,27,02,02,18.80
2015,06,27,02,03,18.80
2015,06,27,02,04,18.80
2015,06,27,02,05,18.80
2015,06,27,02,06,18.70
2015,06,27,02,07,18.70
2015,06,27,02,08,18.70
2015,06,27,02,09,18.70
2015,06,27,02,10,18.70
2015,06,27,02,11,18.70
2015,06,27,02,12,18.70
2015,06,27,02,13,18.60
2015,06,27,02,14,18.70
2015,06,27,02,15,18.70
2015,06,27,02,16,18.60
2015,06,27,02,17,18.60
2015,06,27,02,18,18.60
2015,06,27,02,19,18.60
2015,06,27,02,20,18.60
2015,06,27,02,22,18.60
2015,06,27,02,23,18.60
2015,06,27,02,24,18.60
2015,06,27,02,25,18.50
2015,06,27,02,26,18.50
2015,06,27,02,27,18.50
2015,06,27,02,28,18.50
2015,06,27,02,29,18.50
2015,06,27,02,30,18.40
2015,06,27,02,32,18.40
2015,06,27,02,33,18.40
2015,06,27,02,34,18.40
2015,06,27,02,35,18.40
2015,06,27,02,36,18.40
2015,06,27,02,37,18.30
2015,06,27,02,40,18.30
2015,06,27,02,41,18.30
2015,06,27,02,42,18.30
2015,06,27,02,44,18.20
2015,06,27,02,45,18.20
2015,06,27,02,46,18.20
2015,06,27,02,47,18.20
2015,06,27,02,48,18.20
2015,06,27,02,49,18.20
2015,06,27,02,50,18.20
2015,06,27,02,51,18.20
2015,06,27,02,52,18.20
2015,06,27,02,53,18.20
2015,06,27,02,56,18.10
2015,06,27,02,57,18.10
2015,06,27,02,58,18.10
2015,06,27,03,00,18.10
2015,06,27,03,01,18.00
2015,06,27,03,02,18.00
2015,06,27,03,03,18.00
2015,06,27,03,04,17.90
2015,06,27,03,05,17.90
2015,06,27,03,06,17.90
2015,06,27,03,07,17.90
2015,06,27,03,08,17.90
2015,06,27,03,09,17.90
2015,06,27,03,10,17.90
2015,06,27,03,11,17.90
2015,06,27,03,12,17.80
2015,06,27,03,13,17.80
2015,06,27,03,14,17.80
2015,06,27,03,15,17.80
2015,06,27,03,16,17.80
2015,06,27,03,17,17.80
2015,06,27,03,18,17.80
2015,06,27,03,19,17.80
2015,06,27,03,20,17.80
2015,06,27,03,21,17.70
2015,06,27,03,22,17.70
2015,06,27,03,23,17.70
2015,06,27,03,24,17.70
2015,06,27,03,25,17.70
2015,06,27,03,26,17.70
2015,06,27,03,27,17.70
2015,06,27,03,28,17.70
2015,06,27,03,29,17.70
2015,06,27,03,30,17.60
2015,06,27,03,31,17.60
2015,06,27,03,32,17.60
2015,06,27,03,34,17.60
2015,06,27,03,35,17.60
2015,06,27,03,36,17.50
2015,06,27,03,37,17.50
2015,06,27,03,38,17.50
2015,06,27,03,39,17.40
2015,06,27,03,40,17.40
2015,06,27,03,41,17.40
2015,06,27,03,42,17.40
2015,06,27,03,43,17.40
2015,06,27,03,44,17.40
2015,06,27,03,45,17.40
2015,06,27,03,46,17.40
2015,06,27,03,47,17.40
2015,06,27,03,48,17.30
2015,06,27,03,49,17.30
2015,06,27,03,50,17.30
2015,06,27,03,51,17.30
2015,06,27,03,52,17.30
2015,06,27,03,53,17.30
2015,06,27,03,54,17.30
2015,06,27,03,55,17.30
2015,06,27,03,56,17.30
2015,06,27,03,58,17.30
2015,06,27,03,59,17.20
2015,06,27,04,00,17.20
2015,06,27,04,01,17.20
2015,06,27,04,03,17.20
2015,06,27,04,04,17.20
2015,06,27,04,05,17.20
2015,06,27,04,06,17.20
2015,06,27,04,07,17.10
2015,06,27,04,08,17.20
2015,06,27,04,09,17.10
2015,06,27,04,10,17.10
2015,06,27,04,11,17.10
2015,06,27,04,12,17.10
2015,06,27,04,13,17.10
2015,06,27,04,14,17.10
2015,06,27,04,15,17.10
2015,06,27,04,16,17.10
2015,06,27,04,17,17.10
2015,06,27,04,18,17.10
2015,06,27,04,19,17.10
2015,06,27,04,20,17.10
2015,06,27,04,21,17.10
2015,06,27,04,22,17.10
2015,06,27,04,23,17.00
2015,06,27,04,24,17.00
2015,06,27,04,25,17.00
2015,06,27,04,26,17.00
2015,06,27,04,27,17.00
2015,06,27,04,28,16.90
2015,06,27,04,29,16.90
2015,06,27,04,30,16.90
2015,06,27,04,31,16.90
2015,06,27,04,32,16.90
2015,06,27,04,33,16.90
2015,06,27,04,34,16.80
2015,06,27,04,35,16.80
2015,06,27,04,36,16.80
2015,06,27,04,37,16.80
2015,06,27,04,38,16.80
2015,06,27,04,39,16.80
2015,06,27,04,40,16.80
2015,06,27,04,41,16.80
2015,06,27,04,42,16.70
2015,06,27,04,43,16.70
2015,06,27,04,44,16.70
2015,06,27,04,45,16.70
2015,06,27,04,46,16.70
2015,06,27,04,47,16.70
2015,06,27,04,48,16.70
2015,06,27,04,49,16.60
2015,06,27,04,50,16.60
2015,06,27,04,51,16.60
2015,06,27,04,52,16.60
2015,06,27,04,53,16.60
2015,06,27,04,54,16.60
2015,06,27,04,55,16.50
2015,06,27,04,56,16.50
2015,06,27,04,57,16.50
2015,06,27,04,58,16.50
2015,06,27,04,59,16.50
2015,06,27,05,00,16.40
2015,06,27,05,01,16.40
2015,06,27,05,03,16.40
2015,06,27,05,04,16.40
2015,06,27,05,05,16.40
2015,06,27,05,06,16.30
2015,06,27,05,07,16.40
2015,06,27,05,08,16.30
2015,06,27,05,10,16.30
2015,06,27,05,11,16.30
2015,06,27,05,12,16.30
2015,06,27,05,13,16.30
2015,06,27,05,14,16.30
2015,06,27,05,15,16.30
2015,06,27,05,16,16.30
2015,06,27,05,17,16.30
2015,06,27,05,18,16.30
2015,06,27,05,19,16.20
2015,06,27,05,20,16.20
2015,06,27,05,21,16.20
2015,06,27,05,22,16.20
2015,06,27,05,23,16.20
2015,06,27,05,24,16.20
2015,06,27,05,25,16.20
2015,06,27,05,26,16.20
2015,06,27,05,27,16.20
2015,06,27,05,28,16.20
2015,06,27,05,29,16.10
2015,06,27,05,30,16.10
2015,06,27,05,31,16.10
2015,06,27,05,32,16.10
2015,06,27,05,33,16.10
2015,06,27,05,34,16.10
2015,06,27,05,35,16.10
2015,06,27,05,36,16.10
2015,06,27,05,37,16.10
2015,06,27,05,38,16.00
2015,06,27,05,39,16.00
2015,06,27,05,40,16.00
2015,06,27,05,41,16.00
2015,06,27,05,42,16.00
2015,06,27,05,43,16.00
2015,06,27,05,44,16.00
2015,06,27,05,45,16.00
2015,06,27,05,46,15.90
2015,06,27,05,47,15.90
2015,06,27,05,48,15.90
2015,06,27,05,49,15.90
2015,06,27,05,50,15.90
2015,06,27,05,51,15.90
2015,06,27,05,52,15.90
2015,06,27,05,53,15.90
2015,06,27,05,54,15.90
2015,06,27,05,55,15.90
2015,06,27,05,56,15.90
2015,06,27,05,57,15.90
2015,06,27,05,58,15.90
2015,06,27,05,59,15.90
2015,06,27,06,00,15.90
2015,06,27,06,01,15.90
2015,06,27,06,03,15.90
2015,06,27,06,04,15.90
2015,06,27,06,05,15.90
2015,06,27,06,06,15.90
2015,06,27,06,07,15.90
2015,06,27,06,08,15.90
2015,06,27,06,09,15.90
2015,06,27,06,10,15.90
2015,06,27,06,11,15.90
2015,06,27,06,12,15.90
2015,06,27,06,14,15.90
2015,06,27,06,15,15.90
2015,06,27,06,16,16.00
2015,06,27,06,17,16.00
2015,06,27,06,18,16.00
2015,06,27,06,19,16.00
2015,06,27,06,20,16.00
2015,06,27,06,21,16.10
2015,06,27,06,22,16.10
2015,06,27,06,23,16.10
2015,06,27,06,24,16.10
2015,06,27,06,25,16.10
2015,06,27,06,26,16.10
2015,06,27,06,27,16.10
2015,06,27,06,28,16.10
2015,06,27,06,29,16.20
2015,06,27,06,30,16.20
2015,06,27,06,31,16.20
2015,06,27,06,32,16.20
2015,06,27,06,33,16.30
2015,06,27,06,34,16.30
2015,06,27,06,35,16.40
2015,06,27,06,36,16.40
2015,06,27,06,37,16.50
2015,06,27,06,38,16.60
2015,06,27,06,39,16.70
2015,06,27,06,40,16.70
2015,06,27,06,41,16.80
2015,06,27,06,42,16.80
2015,06,27,06,43,16.90
2015,06,27,06,44,16.90
2015,06,27,06,45,17.00
2015,06,27,06,46,17.10
2015,06,27,06,47,17.10
2015,06,27,06,48,17.20
2015,06,27,06,49,17.20
2015,06,27,06,50,17.30
2015,06,27,06,51,17.30
2015,06,27,06,52,17.40
2015,06,27,06,53,17.40
2015,06,27,06,54,17.60
2015,06,27,06,55,17.70
2015,06,27,06,56,17.80
2015,06,27,06,57,17.80
2015,06,27,06,58,17.90
2015,06,27,06,59,18.00
2015,06,27,07,00,18.10
2015,06,27,07,01,18.10
2015,06,27,07,03,18.20
2015,06,27,07,04,18.20
2015,06,27,07,05,18.30
2015,06,27,07,06,18.30
2015,06,27,07,07,18.30
2015,06,27,07,08,18.30
2015,06,27,07,09,18.30
2015,06,27,07,10,18.30
2015,06,27,07,11,18.30
2015,06,27,07,12,18.40
2015,06,27,07,13,18.40
2015,06,27,07,14,18.40
2015,06,27,07,15,18.40
2015,06,27,07,16,18.40
2015,06,27,07,17,18.40
2015,06,27,07,18,18.30
2015,06,27,07,19,18.30
2015,06,27,07,20,18.30
2015,06,27,07,21,18.30
2015,06,27,07,22,18.30
2015,06,27,07,23,18.30
2015,06,27,07,24,18.30
2015,06,27,07,25,18.30
2015,06,27,07,26,18.30
2015,06,27,07,27,18.30
2015,06,27,07,28,18.30
2015,06,27,07,29,18.30
2015,06,27,07,32,18.20
2015,06,27,07,33,18.20
2015,06,27,07,34,18.20
2015,06,27,07,35,18.20
2015,06,27,07,36,18.20
2015,06,27,07,37,18.20
2015,06,27,07,38,18.20
2015,06,27,07,39,18.10
2015,06,27,07,40,18.10
2015,06,27,07,41,18.10
2015,06,27,07,42,18.10
2015,06,27,07,43,18.00
2015,06,27,07,44,18.00
2015,06,27,07,45,18.00
2015,06,27,07,46,18.00
2015,06,27,07,47,18.00
2015,06,27,07,48,18.00
2015,06,27,07,49,18.10
2015,06,27,07,50,18.10
2015,06,27,07,51,18.10
2015,06,27,07,52,18.20
2015,06,27,07,53,18.20
2015,06,27,07,54,18.20
2015,06,27,07,55,18.30
2015,06,27,07,56,18.30
2015,06,27,07,57,18.40
2015,06,27,07,58,18.40
2015,06,27,07,59,18.50
2015,06,27,08,00,18.60
2015,06,27,08,01,18.60
2015,06,27,08,02,18.60
2015,06,27,08,03,18.70
2015,06,27,08,04,18.80
2015,06,27,08,05,18.90
2015,06,27,08,06,18.90
2015,06,27,08,07,19.10
2015,06,27,08,08,19.20
2015,06,27,08,09,19.30
2015,06,27,08,10,19.40
2015,06,27,08,11,19.60
2015,06,27,08,12,19.70
2015,06,27,08,13,19.80
2015,06,27,08,14,19.90
2015,06,27,08,15,20.00
2015,06,27,08,16,20.10
2015,06,27,08,17,20.20
2015,06,27,08,18,20.30
2015,06,27,08,19,20.40
2015,06,27,08,20,20.50
2015,06,27,08,21,20.60
2015,06,27,08,22,20.70
2015,06,27,08,23,20.80
2015,06,27,08,24,20.90
2015,06,27,08,25,21.00
2015,06,27,08,26,21.10
2015,06,27,08,27,21.20
2015,06,27,08,28,21.30
2015,06,27,08,29,21.40
2015,06,27,08,30,21.40
2015,06,27,08,31,21.60
2015,06,27,08,32,21.60
2015,06,27,08,33,21.70
2015,06,27,08,34,21.70
2015,06,27,08,35,21.80
2015,06,27,08,36,21.80
2015,06,27,08,37,21.80
2015,06,27,08,38,21.90
2015,06,27,08,39,21.90
2015,06,27,08,40,21.90
2015,06,27,08,41,22.00
2015,06,27,08,42,22.10
2015,06,27,08,43,22.10
2015,06,27,08,44,22.10
2015,06,27,08,45,22.10
2015,06,27,08,46,22.10
2015,06,27,08,47,22.20
2015,06,27,08,48,22.20
2015,06,27,08,49,22.20
2015,06,27,08,50,22.30
2015,06,27,08,51,22.30
2015,06,27,08,52,22.40
2015,06,27,08,53,22.40
2015,06,27,08,54,22.60
2015,06,27,08,55,22.60
2015,06,27,08,56,22.60
2015,06,27,08,57,22.70
2015,06,27,08,58,22.70
2015,06,27,08,59,22.70
2015,06,27,09,00,22.80
2015,06,27,09,01,22.80
2015,06,27,09,02,22.90
2015,06,27,09,03,22.90
2015,06,27,09,04,22.90
2015,06,27,09,05,23.10
2015,06,27,09,06,23.10
2015,06,27,09,07,23.20
2015,06,27,09,08,23.30
2015,06,27,09,09,23.30
2015,06,27,09,10,23.40
2015,06,27,09,11,23.40
2015,06,27,09,12,23.40
2015,06,27,09,13,23.50
2015,06,27,09,14,23.50
2015,06,27,09,15,23.60
2015,06,27,09,16,23.60
2015,06,27,09,17,23.70
2015,06,27,09,18,23.70
2015,06,27,09,19,23.70
2015,06,27,09,20,23.70
2015,06,27,09,21,23.70
2015,06,27,09,22,23.70
2015,06,27,09,23,23.70
2015,06,27,09,24,23.70
2015,06,27,09,25,23.80
2015,06,27,09,26,23.80
2015,06,27,09,27,23.90
2015,06,27,09,28,24.00
2015,06,27,09,29,24.10
2015,06,27,09,30,24.10
2015,06,27,09,31,24.10
2015,06,27,09,32,24.10
2015,06,27,09,33,24.10
2015,06,27,09,34,24.20
2015,06,27,09,35,24.20
2015,06,27,09,36,24.20
2015,06,27,09,37,24.20
2015,06,27,09,38,24.20
2015,06,27,09,39,24.10
2015,06,27,09,40,24.10
2015,06,27,09,41,24.10
2015,06,27,09,42,23.90
2015,06,27,09,43,23.90
2015,06,27,09,44,23.90
2015,06,27,09,45,23.90
2015,06,27,09,46,23.90
2015,06,27,09,47,23.90
2015,06,27,09,48,23.90
2015,06,27,09,49,23.90
2015,06,27,09,50,23.90
2015,06,27,09,51,23.90
2015,06,27,09,52,24.00
2015,06,27,09,53,24.10
2015,06,27,09,54,24.10
2015,06,27,09,55,24.20
2015,06,27,09,56,24.20
2015,06,27,09,57,24.30
2015,06,27,09,58,24.30
2015,06,27,09,59,24.40
2015,06,27,10,00,24.40
2015,06,27,10,01,24.60
2015,06,27,10,02,24.70
2015,06,27,10,03,24.80
2015,06,27,10,04,24.90
2015,06,27,10,05,25.10
2015,06,27,10,06,25.20
2015,06,27,10,07,25.30
2015,06,27,10,08,25.40
2015,06,27,10,09,25.50
2015,06,27,10,10,25.70
2015,06,27,10,11,25.80
2015,06,27,10,12,25.90
2015,06,27,10,13,26.00
2015,06,27,10,14,26.10
2015,06,27,10,15,26.20
2015,06,27,10,16,26.30
2015,06,27,10,17,26.40
2015,06,27,10,18,26.60
2015,06,27,10,19,26.70
2015,06,27,10,20,26.80
2015,06,27,10,21,26.80
2015,06,27,10,22,26.90
2015,06,27,10,23,27.00
2015,06,27,10,24,27.10
2015,06,27,10,25,27.20
2015,06,27,10,26,27.20
2015,06,27,10,27,27.20
2015,06,27,10,28,27.20
2015,06,27,10,29,27.30
2015,06,27,10,30,27.30
2015,06,27,10,31,27.30
2015,06,27,10,32,27.30
2015,06,27,10,33,27.40
2015,06,27,10,34,27.50
2015,06,27,10,35,27.60
2015,06,27,10,36,27.60
2015,06,27,10,37,27.60
2015,06,27,10,38,27.70
2015,06,27,10,39,27.70
2015,06,27,10,40,27.70
2015,06,27,10,41,27.80
2015,06,27,10,42,27.80
2015,06,27,10,43,27.90
2015,06,27,10,44,28.00
2015,06,27,10,45,28.10
2015,06,27,10,46,28.20
2015,06,27,10,47,28.30
2015,06,27,10,48,28.40
2015,06,27,10,49,28.60
2015,06,27,10,50,28.70
2015,06,27,10,51,28.80
2015,06,27,10,52,28.80
2015,06,27,10,53,28.90
2015,06,27,10,54,28.90
2015,06,27,10,55,29.00
2015,06,27,10,56,29.00
2015,06,27,10,57,28.90
2015,06,27,10,58,28.90
2015,06,27,10,59,29.00
2015,06,27,11,00,29.10
2015,06,27,11,01,29.20
2015,06,27,11,02,29.20
2015,06,27,11,03,29.30
2015,06,27,11,04,29.30
2015,06,27,11,05,29.20
2015,06,27,11,06,29.20
2015,06,27,11,09,29.00
2015,06,27,11,10,29.10
2015,06,27,11,11,29.00
2015,06,27,11,12,29.00
2015,06,27,11,13,29.00
2015,06,27,11,14,29.00
2015,06,27,11,15,29.00
2015,06,27,11,16,29.00
2015,06,27,11,17,29.00
2015,06,27,11,18,29.10
2015,06,27,11,19,29.10
2015,06,27,11,20,29.10
2015,06,27,11,21,29.10
2015,06,27,11,22,29.20
2015,06,27,11,24,29.20
2015,06,27,11,25,29.20
2015,06,27,11,26,29.20
2015,06,27,11,27,29.20
2015,06,27,11,28,29.20
2015,06,27,11,29,29.20
2015,06,27,11,30,29.20
2015,06,27,11,31,29.30
2015,06,27,11,33,29.40
2015,06,27,11,34,29.60
2015,06,27,11,35,29.60
2015,06,27,11,37,29.70
2015,06,27,11,38,29.70
2015,06,27,11,39,29.70
2015,06,27,11,40,29.80
2015,06,27,11,41,29.80
2015,06,27,11,42,29.90
2015,06,27,11,43,30.00
2015,06,27,11,44,30.10
2015,06,27,11,45,30.10
2015,06,27,11,46,30.20
2015,06,27,11,47,30.30
2015,06,27,11,48,30.40
2015,06,27,11,49,30.50
2015,06,27,11,50,30.70
2015,06,27,11,51,30.70
2015,06,27,11,53,30.90
2015,06,27,11,54,31.10
2015,06,27,11,55,31.20
2015,06,27,11,56,31.30
2015,06,27,11,57,31.30
2015,06,27,11,58,31.30
2015,06,27,11,59,31.40
2015,06,27,12,00,31.40
2015,06,27,12,01,31.40
2015,06,27,12,02,31.40
2015,06,27,12,03,31.40
2015,06,27,12,04,31.40
2015,06,27,12,05,31.50
2015,06,27,12,06,31.50
2015,06,27,12,07,31.50
2015,06,27,12,08,31.50
2015,06,27,12,09,31.50
2015,06,27,12,10,31.60
2015,06,27,12,11,31.70
2015,06,27,12,12,31.70
2015,06,27,12,13,31.80
2015,06,27,12,14,31.80
2015,06,27,12,15,31.90
2015,06,27,12,16,31.90
2015,06,27,12,17,31.80
2015,06,27,12,18,31.80
2015,06,27,12,19,31.70
2015,06,27,12,20,31.60
2015,06,27,12,21,31.50
2015,06,27,12,22,31.40
2015,06,27,12,23,31.40
2015,06,27,12,24,31.40
2015,06,27,12,25,31.40
2015,06,27,12,26,31.50
2015,06,27,12,27,31.50
2015,06,27,12,28,31.60
2015,06,27,12,29,31.60
2015,06,27,12,30,31.70
2015,06,27,12,31,31.70
2015,06,27,12,32,31.70
2015,06,27,12,33,31.80
2015,06,27,12,34,31.80
2015,06,27,12,35,31.80
2015,06,27,12,36,31.80
2015,06,27,12,37,31.80
2015,06,27,12,38,31.80
2015,06,27,12,39,31.80
2015,06,27,12,40,31.80
2015,06,27,12,41,31.90
2015,06,27,12,42,31.90
2015,06,27,12,43,31.90
2015,06,27,12,44,32.00
2015,06,27,12,45,32.10
2015,06,27,12,46,32.10
2015,06,27,12,47,32.10
2015,06,27,12,48,32.10
2015,06,27,12,49,32.20
2015,06,27,12,50,32.20
2015,06,27,12,51,32.30
2015,06,27,12,52,32.30
2015,06,27,12,53,32.30
2015,06,27,12,54,32.30
2015,06,27,12,55,32.20
2015,06,27,12,56,32.20
2015,06,27,12,57,32.20
2015,06,27,12,58,32.20
2015,06,27,12,59,32.30
2015,06,27,13,00,32.30
2015,06,27,13,01,32.40
2015,06,27,13,02,32.50
2015,06,27,13,03,32.60
2015,06,27,13,04,32.70
2015,06,27,13,05,32.80
2015,06,27,13,06,32.80
2015,06,27,13,07,32.90
2015,06,27,13,08,33.00
2015,06,27,13,09,33.10
2015,06,27,13,10,33.10
2015,06,27,13,11,33.10
2015,06,27,13,12,33.10
2015,06,27,13,13,33.10
2015,06,27,13,14,33.10
2015,06,27,13,15,33.10
2015,06,27,13,16,33.10
2015,06,27,13,17,33.10
2015,06,27,13,18,33.20
2015,06,27,13,19,33.20
2015,06,27,13,20,33.20
2015,06,27,13,21,33.20
2015,06,27,13,22,33.20
2015,06,27,13,23,33.20
2015,06,27,13,24,33.20
2015,06,27,13,25,33.20
2015,06,27,13,26,33.20
2015,06,27,13,27,33.20
2015,06,27,13,28,33.30
2015,06,27,13,29,33.30
2015,06,27,13,30,33.30
2015,06,27,13,31,33.30
2015,06,27,13,32,33.30
2015,06,27,13,33,33.30
2015,06,27,13,34,33.30
2015,06,27,13,35,33.30
2015,06,27,13,36,33.30
2015,06,27,13,37,33.30
2015,06,27,13,38,33.30
2015,06,27,13,39,33.30
2015,06,27,13,40,33.30
2015,06,27,13,41,33.30
2015,06,27,13,42,33.30
2015,06,27,13,43,33.30
2015,06,27,13,44,33.30
2015,06,27,13,46,33.20
2015,06,27,13,47,33.20
2015,06,27,13,48,33.10
2015,06,27,13,49,33.10
2015,06,27,13,50,33.10
2015,06,27,13,51,33.20
2015,06,27,13,52,33.20
2015,06,27,13,53,33.20
2015,06,27,13,54,33.20
2015,06,27,13,55,33.30
2015,06,27,13,56,33.30
2015,06,27,13,57,33.40
2015,06,27,13,58,33.50
2015,06,27,13,59,33.60
2015,06,27,14,00,33.60
2015,06,27,14,01,33.70
2015,06,27,14,02,33.70
2015,06,27,14,03,33.80
2015,06,27,14,04,33.90
2015,06,27,14,05,33.90
2015,06,27,14,06,33.90
2015,06,27,14,07,34.00
2015,06,27,14,08,34.00
2015,06,27,14,09,34.10
2015,06,27,14,10,34.10
2015,06,27,14,11,34.10
2015,06,27,14,12,34.10
2015,06,27,14,13,34.20
2015,06,27,14,14,34.20
2015,06,27,14,15,34.20
2015,06,27,14,16,34.30
2015,06,27,14,17,34.30
2015,06,27,14,18,34.30
2015,06,27,14,19,34.30
2015,06,27,14,20,34.30
2015,06,27,14,21,34.20
2015,06,27,14,22,34.20
2015,06,27,14,23,34.20
2015,06,27,14,24,34.20
2015,06,27,14,25,34.20
2015,06,27,14,26,34.30
2015,06,27,14,29,34.50
2015,06,27,14,30,34.60
2015,06,27,14,31,34.60
2015,06,27,14,32,34.70
2015,06,27,14,33,34.80
2015,06,27,14,34,34.80
2015,06,27,14,35,34.80
2015,06,27,14,36,34.90
2015,06,27,14,37,34.90
2015,06,27,14,38,35.10
2015,06,27,14,39,35.10
2015,06,27,14,40,35.10
2015,06,27,14,41,35.20
2015,06,27,14,42,35.20
2015,06,27,14,43,35.20
2015,06,27,14,44,35.20
2015,06,27,14,45,35.30
2015,06,27,14,46,35.30
2015,06,27,14,47,35.30
2015,06,27,14,48,35.30
2015,06,27,14,49,35.20
2015,06,27,14,50,35.20
2015,06,27,14,51,35.20
2015,06,27,14,52,35.20
2015,06,27,14,53,35.20
2015,06,27,14,54,35.20
2015,06,27,14,55,35.20
2015,06,27,14,56,35.20
2015,06,27,14,57,35.20
2015,06,27,14,58,35.20
2015,06,27,14,59,35.10
2015,06,27,15,00,35.10
2015,06,27,15,03,34.90
2015,06,27,15,04,34.90
2015,06,27,15,05,34.90
2015,06,27,15,06,35.00
2015,06,27,15,07,35.10
2015,06,27,15,08,35.20
2015,06,27,15,09,35.20
2015,06,27,15,10,35.20
2015,06,27,15,11,35.20
2015,06,27,15,12,35.10
2015,06,27,15,13,35.00
2015,06,27,15,14,34.90
2015,06,27,15,15,34.90
2015,06,27,15,16,34.90
2015,06,27,15,17,35.00
2015,06,27,15,18,35.00
2015,06,27,15,19,35.10
2015,06,27,15,20,35.10
2015,06,27,15,21,35.20
2015,06,27,15,22,35.20
2015,06,27,15,23,35.30
2015,06,27,15,24,35.40
2015,06,27,15,25,35.40
2015,06,27,15,26,35.40
2015,06,27,15,27,35.40
2015,06,27,15,28,35.40
2015,06,27,15,29,35.30
2015,06,27,15,30,35.30
2015,06,27,15,31,35.20
2015,06,27,15,32,35.20
2015,06,27,15,33,35.20
2015,06,27,15,34,35.20
2015,06,27,15,35,35.20
2015,06,27,15,36,35.30
2015,06,27,15,37,35.30
2015,06,27,15,38,35.30
2015,06,27,15,39,35.20
2015,06,27,15,40,35.20
2015,06,27,15,41,35.20
2015,06,27,15,42,35.20
2015,06,27,15,43,35.20
2015,06,27,15,44,35.10
2015,06,27,15,45,35.10
2015,06,27,15,46,35.10
2015,06,27,15,47,35.10
2015,06,27,15,48,35.10
2015,06,27,15,49,35.10
2015,06,27,15,50,35.20
2015,06,27,15,51,35.20
2015,06,27,15,52,35.10
2015,06,27,15,53,35.10
2015,06,27,15,54,35.10
2015,06,27,15,57,35.00
2015,06,27,15,58,34.90
2015,06,27,15,59,34.90
2015,06,27,16,00,34.80
2015,06,27,16,01,34.80
2015,06,27,16,02,34.80
2015,06,27,16,03,34.80
2015,06,27,16,04,34.90
2015,06,27,16,05,34.80
2015,06,27,16,06,34.90
2015,06,27,16,07,34.90
2015,06,27,16,08,34.90
2015,06,27,16,09,34.90
2015,06,27,16,10,34.90
2015,06,27,16,11,34.90
2015,06,27,16,12,35.00
2015,06,27,16,13,35.10
2015,06,27,16,14,35.10
2015,06,27,16,15,35.10
2015,06,27,16,16,35.10
2015,06,27,16,17,35.10
2015,06,27,16,18,35.20
2015,06,27,16,19,35.20
2015,06,27,16,20,35.30
2015,06,27,16,21,35.30
2015,06,27,16,22,35.30
2015,06,27,16,23,35.40
2015,06,27,16,24,35.40
2015,06,27,16,25,35.40
2015,06,27,16,26,35.40
2015,06,27,16,27,35.40
2015,06,27,16,28,35.40
2015,06,27,16,29,35.40
2015,06,27,16,30,35.40
2015,06,27,16,31,35.40
2015,06,27,16,32,35.30
2015,06,27,16,33,35.30
2015,06,27,16,34,35.30
2015,06,27,16,35,35.30
2015,06,27,16,36,35.30
2015,06,27,16,37,35.40
2015,06,27,16,38,35.40
2015,06,27,16,39,35.50
2015,06,27,16,40,35.60
2015,06,27,16,41,35.60
2015,06,27,16,42,35.60
2015,06,27,16,43,35.60
2015,06,27,16,44,35.60
2015,06,27,16,45,35.60
2015,06,27,16,46,35.60
2015,06,27,16,47,35.60
2015,06,27,16,48,35.60
2015,06,27,16,49,35.60
2015,06,27,16,50,35.60
2015,06,27,16,51,35.60
2015,06,27,16,52,35.60
2015,06,27,16,53,35.60
2015,06,27,16,54,35.70
2015,06,27,16,55,35.70
2015,06,27,16,56,35.70
2015,06,27,16,57,35.70
2015,06,27,16,58,35.70
2015,06,27,16,59,35.80
2015,06,27,17,00,35.80
2015,06,27,17,01,35.80
2015,06,27,17,02,35.90
2015,06,27,17,03,35.90
2015,06,27,17,04,35.90
2015,06,27,17,05,35.90
2015,06,27,17,06,35.90
2015,06,27,17,07,35.90
2015,06,27,17,08,35.90
2015,06,27,17,09,35.90
2015,06,27,17,10,35.80
2015,06,27,17,11,35.80
2015,06,27,17,12,35.80
2015,06,27,17,13,35.70
2015,06,27,17,14,35.70
2015,06,27,17,15,35.60
2015,06,27,17,16,35.50
2015,06,27,17,17,35.40
2015,06,27,17,18,35.40
2015,06,27,17,19,35.40
2015,06,27,17,20,35.40
2015,06,27,17,21,35.40
2015,06,27,17,22,35.40
2015,06,27,17,23,35.40
2015,06,27,17,24,35.40
2015,06,27,17,25,35.50
2015,06,27,17,26,35.40
2015,06,27,17,27,35.40
2015,06,27,17,28,35.50
2015,06,27,17,29,35.50
2015,06,27,17,30,35.50
2015,06,27,17,31,35.50
2015,06,27,17,32,35.40
2015,06,27,17,33,35.40
2015,06,27,17,34,35.30
2015,06,27,17,35,35.30
2015,06,27,17,36,35.20
2015,06,27,17,37,35.20
2015,06,27,17,38,35.20
2015,06,27,17,39,35.20
2015,06,27,17,40,35.20
2015,06,27,17,41,35.20
2015,06,27,17,42,35.10
2015,06,27,17,43,35.10
2015,06,27,17,44,35.10
2015,06,27,17,45,35.10
2015,06,27,17,46,35.10
2015,06,27,17,47,35.10
2015,06,27,17,48,35.10
2015,06,27,17,49,35.10
2015,06,27,17,50,35.10
2015,06,27,17,51,35.20
2015,06,27,17,52,35.20
2015,06,27,17,53,35.20
2015,06,27,17,54,35.20
2015,06,27,17,55,35.20
2015,06,27,17,56,35.10
2015,06,27,17,57,35.10
2015,06,27,17,58,35.10